Weather History for KD07 - December, 2013

Change the Weather History Date:

Friday, December 6, 2013

  Actual Average Record
Temperature  
Mean Temperature -13 °F 22 °F  
Max Temperature -7 °F 32 °F 46 °F (2002)
Min Temperature -19 °F 13 °F -19 °F (2013)
Degree Days  
Heating Degree Days 78 43  
Month to date heating degree days 318 251  
Since 1 July heating degree days 2068 2034  
Cooling Degree Days 0 0  
Month to date cooling degree days 0 0  
Year to date cooling degree days 720 635  
Moisture  
Dew Point -20 °F    
Average Humidity 73    
Maximum Humidity 81    
Minimum Humidity 65    
Precipitation  
Precipitation 0.00 in 0.01 in 0.01 in (2002)
Month to date precipitation 0.27 0.06  
Year to date precipitation 16.60 17.32  
Sea Level Pressure  
Sea Level Pressure 30.72 in    
Wind  
Wind Speed 9 mph (WNW)    
Max Wind Speed 15 mph    
Max Gust Speed 17 mph    
T = Trace of Precipitation, MM = Missing Value Source: NWS Daily Summary

Daily Weather History Graph

Daily Weather History Graph

Search for Another Location

Airport or City:

Trip Planner

Search our weather history database for the weather conditions in past years. The results will help you decide how hot, cold, wet, or windy it might be!

Date:

Astronomy

Dec. 06, 2013 Rise Set
Actual Time 7:11 AM MST 4:06 PM MST
Civil Twilight 6:38 AM MST 4:39 PM MST
Nautical Twilight 6:01 AM MST 5:16 PM MST
Astronomical Twilight 5:25 AM MST 5:52 PM MST
Moon 10:12 AM MST (12/6) 8:48 PM MST (12/6)
Length of Visible Light 10h 01m
Length of Day
8h 54m
Waxing Crescent, 20% of the Moon is Illuminated
Dec 6
Waxing Crescent
Dec 9
First Quarter
Dec 17
Full
Dec 25
Last Quarter
Jan 1
New

Hourly Weather History & Observations

Time (MST) Temp. Windchill Dew Point Humidity Pressure Visibility Wind Dir Wind Speed Gust Speed Precip Events Conditions
12:56 AM -15.0 °F -36.8 °F -20.0 °F 78% 30.59 in - NW 12.7 mph - N/A   Unknown
1:56 AM -17.0 °F -34.8 °F -22.0 °F 78% 30.61 in - NW 8.1 mph - N/A   Unknown
2:56 AM -17.0 °F -37.3 °F -22.0 °F 78% 30.61 in - NW 10.4 mph - N/A   Unknown
3:56 AM -16.1 °F -30.6 °F -20.9 °F 79% 30.64 in - WNW 5.8 mph - N/A   Unknown
4:56 AM -16.1 °F -35.0 °F -22.0 °F 74% 30.66 in - WNW 9.2 mph - N/A   Unknown
5:56 AM -17.0 °F -38.4 °F -22.0 °F 78% 30.67 in - NW 11.5 mph - N/A   Unknown
6:56 AM -18.0 °F -39.7 °F -23.1 °F 78% 30.69 in - NW 11.5 mph - N/A   Unknown
7:56 AM -17.0 °F -31.7 °F -22.0 °F 78% 30.71 in - NW 5.8 mph - N/A   Unknown
8:56 AM -14.1 °F -31.3 °F -20.0 °F 75% 30.73 in - WNW 8.1 mph - N/A   Unknown
9:56 AM -11.0 °F -31.8 °F -17.0 °F 75% 30.74 in - WNW 12.7 mph - N/A   Unknown
10:56 AM -9.0 °F -29.3 °F -16.1 °F 71% 30.75 in - WNW 12.7 mph - N/A   Unknown
11:56 AM -8.0 °F -27.1 °F -16.1 °F 68% 30.74 in - WNW 11.5 mph - N/A   Unknown
12:56 PM -7.1 °F -25.9 °F -15.0 °F 68% 30.71 in - NW 11.5 mph - N/A   Unknown
1:56 PM -7.1 °F -26.8 °F -14.1 °F 72% 30.71 in - NW 12.7 mph - N/A   Unknown
2:56 PM -7.1 °F -25.0 °F -14.1 °F 72% 30.72 in - WNW 10.4 mph - N/A   Unknown
3:56 PM -9.9 °F -21.5 °F -16.1 °F 74% 30.74 in - WNW 4.6 mph - N/A   Unknown
4:56 PM -11.9 °F -28.7 °F -18.0 °F 74% 30.75 in - NNW 8.1 mph - N/A   Unknown
5:56 PM -14.1 °F -26.3 °F -18.9 °F 79% 30.78 in - WNW 4.6 mph - N/A   Unknown
6:56 PM -15.0 °F -29.3 °F -20.9 °F 75% 30.79 in - WNW 5.8 mph - N/A   Unknown
7:56 PM -16.1 °F -32.3 °F -20.9 °F 79% 30.81 in - WNW 6.9 mph - N/A   Unknown
8:56 PM -17.0 °F -33.4 °F -22.0 °F 78% 30.80 in - West 6.9 mph - N/A   Unknown
9:56 PM -18.0 °F -36.1 °F -23.1 °F 78% 30.81 in - WNW 8.1 mph - N/A   Unknown
10:56 PM -17.0 °F -40.2 °F -23.1 °F 74% 30.79 in - WNW 13.8 mph - N/A   Unknown
11:56 PM -18.0 °F -38.6 °F -24.0 °F 74% 30.79 in - WNW 10.4 mph - N/A   Unknown